Weather History for Hickory, NC

Change the Weather History Date:

Friday, May 2, 2014

  Actual Average Record
Temperature  
Mean Temperature 60 °F -  
Max Temperature 70 °F 74 °F 89 °F (1951)
Min Temperature 51 °F 52 °F 30 °F (1963)
Degree Days  
Heating Degree Days 5    
Growing Degree Days 10 (Base 50)    
Moisture  
Dew Point 38 °F    
Average Humidity 46    
Maximum Humidity 66    
Minimum Humidity 33    
Precipitation  
Precipitation 0.00 in - - ()
Sea Level Pressure  
Sea Level Pressure 29.86 in    
Wind  
Wind Speed 3 mph (SW)    
Max Wind Speed 12 mph    
Max Gust Speed 16 mph    
Visibility 10 miles    
Events      
Averages and records for this station are not official NWS values.
T = Trace of Precipitation, MM = Missing Value Source: NWS Daily Summary

Daily Weather History Graph

Daily Weather History Graph

Search for Another Location

Airport:

Trip Planner

Search our weather history database for the weather conditions in past years. The results will help you decide how hot, cold, wet, or windy it might be!

Date:

Astronomy

May. 02, 2014 Rise Set
Actual Time 6:32 AM EDT 8:13 PM EDT
Civil Twilight 6:04 AM EDT 8:40 PM EDT
Nautical Twilight 5:31 AM EDT 9:13 PM EDT
Astronomical Twilight 4:57 AM EDT 9:48 PM EDT
Moon 9:10 AM EDT (5/2) 11:32 PM EDT (5/2)
Length of Visible Light 14h 35m
Length of Day
13h 40m
Waxing Crescent, 12% of the Moon is Illuminated
May 2
Waxing Crescent
May 6
First Quarter
May 14
Full
May 21
Last Quarter
May 28
New

Hourly Weather History & Observations

Time (EDT) Temp. Dew Point Humidity Pressure Visibility Wind Dir Wind Speed Gust Speed Precip Events Conditions
12:53 AM 57.0 °F 36.0 °F 45% 29.85 in 10.0 mi Variable 3.5 mph - N/A   Clear
1:53 AM 55.9 °F 36.0 °F 47% 29.86 in 10.0 mi Calm Calm - N/A   Clear
2:53 AM 55.0 °F 36.0 °F 49% 29.86 in 10.0 mi North 3.5 mph - N/A   Clear
3:53 AM 54.0 °F 35.1 °F 49% 29.86 in 10.0 mi Calm Calm - N/A   Clear
4:53 AM 54.0 °F 36.0 °F 51% 29.87 in 10.0 mi Calm Calm - N/A   Clear
5:53 AM 53.1 °F 34.0 °F 48% 29.89 in 10.0 mi Calm Calm - N/A   Clear
6:53 AM 52.0 °F 35.1 °F 53% 29.90 in 10.0 mi WNW 3.5 mph - N/A   Clear
7:53 AM 51.1 °F 39.9 °F 66% 29.91 in 10.0 mi Calm Calm - N/A   Clear
8:53 AM 54.0 °F 39.9 °F 59% 29.94 in 10.0 mi WNW 4.6 mph - N/A   Clear
9:53 AM 55.9 °F 39.9 °F 55% 29.92 in 10.0 mi West 5.8 mph - N/A   Clear
10:53 AM 61.0 °F 37.9 °F 42% 29.91 in 10.0 mi West 4.6 mph - N/A   Clear
11:53 AM 62.1 °F 37.0 °F 39% 29.89 in 10.0 mi Variable 3.5 mph - N/A   Clear
12:53 PM 64.9 °F 37.9 °F 37% 29.87 in 10.0 mi SSW 5.8 mph - N/A   Clear
1:53 PM 64.9 °F 37.9 °F 37% 29.85 in 10.0 mi Variable 4.6 mph - N/A   Mostly Cloudy
2:53 PM 68.0 °F 39.0 °F 35% 29.84 in 10.0 mi Variable 4.6 mph - N/A   Partly Cloudy
3:53 PM 69.1 °F 39.9 °F 35% 29.81 in 10.0 mi SSW 6.9 mph - N/A   Clear
4:53 PM 69.1 °F 39.0 °F 33% 29.80 in 10.0 mi South 9.2 mph 16.1 mph N/A   Clear
5:53 PM 68.0 °F 39.0 °F 35% 29.81 in 10.0 mi SSW 11.5 mph 16.1 mph N/A   Clear
6:53 PM 66.0 °F 39.9 °F 38% 29.79 in 10.0 mi SSW 5.8 mph - N/A   Clear
8:53 PM 62.1 °F 41.0 °F 46% 29.83 in 10.0 mi South 4.6 mph - N/A   Clear
9:53 PM 59.0 °F 42.1 °F 53% 29.84 in 10.0 mi Calm Calm - N/A   Scattered Clouds
10:53 PM 59.0 °F 43.0 °F 55% 29.86 in 10.0 mi Calm Calm - N/A   Overcast
11:53 PM 59.0 °F 43.0 °F 55% 29.85 in 10.0 mi South 4.6 mph - N/A   Scattered Clouds